• In Lithuania
  • List of Countries
  • For 7 days
  • Water Temperature
  • Satellite Maps
  • Weather Map
  • Weather Widgets
  • user-avatar
    Login

    Hourly Weather Durgapur

    Today, 17 July, Tuesday

    Time Temperature Precipitation Wind Pressure Humidity
    00:00 +32°C° 0 mm 5 mps 741 mmHg 80%
    01:00 +30°C° 0.2 mm 5 mps 741 mmHg 82%
    02:00 +30°C° 0.2 mm 5 mps 741 mmHg 83%
    03:00 +30°C° 0.2 mm 5 mps 741 mmHg 85%
    04:00 +30°C° 0.2 mm 5 mps 741 mmHg 85%
    05:00 +30°C° 0.2 mm 5 mps 741 mmHg 86%
    06:00 +30°C° 0 mm 4 mps 741 mmHg 86%
    07:00 +30°C° 0.3 mm 4 mps 741 mmHg 82%
    08:00 +32°C° 0.3 mm 5 mps 741 mmHg 78%
    09:00 +33°C° 0.3 mm 5 mps 742 mmHg 74%
    10:00 +34°C° 1 mm 5 mps 741 mmHg 69%
    11:00 +35°C° 1 mm 5 mps 741 mmHg 65%
    12:00 +35°C° 0 mm 5 mps 742 mmHg 66%
    13:00 +36°C° 0.6 mm 5 mps 741 mmHg 63%
    14:00 +36°C° 0.6 mm 5 mps 741 mmHg 60%
    15:00 +37°C° 0.6 mm 4 mps 740 mmHg 57%
    16:00 +37°C° 0 mm 4 mps 740 mmHg 57%
    17:00 +37°C° 0 mm 4 mps 740 mmHg 58%
    18:00 +36°C° 0 mm 4 mps 740 mmHg 58%
    19:00 +36°C° 0.1 mm 4 mps 740 mmHg 61%
    20:00 +35°C° 0.1 mm 4 mps 741 mmHg 64%
    21:00 +34°C° 0.1 mm 4 mps 741 mmHg 68%
    22:00 +34°C° 0.1 mm 4 mps 742 mmHg 70%
    23:00 +33°C° 0.1 mm 4 mps 742 mmHg 72%

    Tomorrow, 18 July, Wednesday

    Time Temperature Precipitation Wind Pressure Humidity
    00:00 +32°C° 0.1 mm 4 mps 742 mmHg 74%
    01:00 +32°C° 0 mm 4 mps 742 mmHg 76%
    02:00 +32°C° 0 mm 4 mps 742 mmHg 78%
    03:00 +30°C° 0 mm 3 mps 741 mmHg 80%
    04:00 +30°C° 0 mm 3 mps 742 mmHg 82%
    05:00 +30°C° 0 mm 3 mps 742 mmHg 83%
    06:00 +30°C° 0 mm 3 mps 742 mmHg 85%
    07:00 +32°C° 0 mm 4 mps 742 mmHg 79%
    08:00 +33°C° 0 mm 4 mps 742 mmHg 74%
    09:00 +34°C° 0 mm 4 mps 743 mmHg 69%
    10:00 +35°C° 0.1 mm 4 mps 743 mmHg 64%
    11:00 +37°C° 0.1 mm 5 mps 742 mmHg 59%
    12:00 +39°C° 0.1 mm 5 mps 742 mmHg 54%
    13:00 +39°C° 0.4 mm 5 mps 741 mmHg 53%
    14:00 +39°C° 0.4 mm 5 mps 741 mmHg 53%
    15:00 +40°C° 0.4 mm 5 mps 740 mmHg 52%
    16:00 +39°C° 0.4 mm 5 mps 740 mmHg 53%
    17:00 +39°C° 0.4 mm 5 mps 740 mmHg 55%
    18:00 +37°C° 0.4 mm 4 mps 740 mmHg 56%
    19:00 +36°C° 0.7 mm 4 mps 740 mmHg 60%
    20:00 +36°C° 0.7 mm 4 mps 741 mmHg 64%
    21:00 +35°C° 0.7 mm 4 mps 741 mmHg 68%
    22:00 +34°C° 0 mm 4 mps 742 mmHg 69%
    23:00 +33°C° 0 mm 4 mps 742 mmHg 71%

    Day after tomorrow, 19 July, Thursday

    Time Temperature Precipitation Wind Pressure Humidity
    00:00 +33°C° 0 mm 4 mps 742 mmHg 73%
    01:00 +31°C° 0 mm 3 mps 742 mmHg 75%
    02:00 +31°C° 0 mm 3 mps 742 mmHg 77%
    03:00 +31°C° 0 mm 2 mps 741 mmHg 78%
    04:00 +31°C° 0 mm 2 mps 741 mmHg 79%
    05:00 +31°C° 0 mm 2 mps 742 mmHg 80%
    06:00 +30°C° 0 mm 2 mps 742 mmHg 81%
    07:00 +31°C° 0 mm 3 mps 742 mmHg 76%
    08:00 +34°C° 0 mm 3 mps 742 mmHg 71%
    09:00 +35°C° 0 mm 3 mps 743 mmHg 67%
    10:00 +36°C° 0 mm 3 mps 743 mmHg 62%
    11:00 +37°C° 0 mm 3 mps 742 mmHg 58%
    12:00 +38°C° 0 mm 4 mps 742 mmHg 53%
    13:00 +38°C° 0 mm 4 mps 741 mmHg 52%
    14:00 +38°C° 0 mm 4 mps 741 mmHg 51%
    15:00 +40°C° 0 mm 4 mps 740 mmHg 50%
    16:00 +38°C° 0 mm 4 mps 740 mmHg 52%
    17:00 +38°C° 0 mm 4 mps 740 mmHg 53%
    18:00 +38°C° 0 mm 3 mps 740 mmHg 54%
    19:00 +37°C° 0 mm 4 mps 740 mmHg 57%
    20:00 +36°C° 0 mm 4 mps 741 mmHg 60%
    21:00 +36°C° 0 mm 4 mps 742 mmHg 63%
    22:00 +35°C° 0 mm 3 mps 742 mmHg 65%
    23:00 +34°C° 0 mm 3 mps 742 mmHg 68%

    20 July, Friday

    Time Temperature Precipitation Wind Pressure Humidity
    00:00 +34°C° 0 mm 3 mps 742 mmHg 71%
    01:00 +33°C° 0 mm 3 mps 741 mmHg 72%
    02:00 +32°C° 0 mm 2 mps 741 mmHg 74%
    03:00 +32°C° 0 mm 2 mps 740 mmHg 76%
    04:00 +31°C° 0 mm 2 mps 741 mmHg 77%
    05:00 +31°C° 0 mm 1 mps 741 mmHg 78%
    06:00 +31°C° 0 mm 1 mps 741 mmHg 80%
    07:00 +32°C° 0 mm 1 mps 741 mmHg 74%
    08:00 +34°C° 0 mm 2 mps 741 mmHg 69%
    09:00 +35°C° 0 mm 2 mps 742 mmHg 63%
    10:00 +37°C° 0 mm 2 mps 742 mmHg 58%
    11:00 +38°C° 0 mm 2 mps 741 mmHg 52%
    12:00 +39°C° 0 mm 3 mps 741 mmHg 47%
    13:00 +40°C° 0 mm 3 mps 740 mmHg 45%
    14:00 +40°C° 0 mm 3 mps 740 mmHg 44%
    15:00 +42°C° 0 mm 3 mps 739 mmHg 42%
    16:00 +40°C° 0 mm 3 mps 739 mmHg 44%
    17:00 +40°C° 0 mm 3 mps 739 mmHg 46%
    18:00 +40°C° 0 mm 4 mps 739 mmHg 48%
    19:00 +38°C° 0 mm 4 mps 740 mmHg 51%
    20:00 +37°C° 0 mm 4 mps 740 mmHg 54%
    21:00 +37°C° 0 mm 4 mps 741 mmHg 57%
    22:00 +36°C° 0 mm 4 mps 741 mmHg 61%
    23:00 +35°C° 0 mm 3 mps 741 mmHg 64%

    21 July, Saturday

    Time Temperature Precipitation Wind Pressure Humidity
    00:00 +35°C° 0 mm 3 mps 741 mmHg 67%
    01:00 +34°C° 0 mm 2 mps 740 mmHg 68%
    02:00 +34°C° 0 mm 2 mps 740 mmHg 70%
    03:00 +34°C° 0 mm 2 mps 740 mmHg 71%
    04:00 +33°C° 0 mm 1 mps 740 mmHg 72%
    05:00 +33°C° 0 mm 1 mps 740 mmHg 73%
    06:00 +32°C° 0 mm 1 mps 740 mmHg 74%
    07:00 +34°C° 0 mm 1 mps 740 mmHg 68%
    08:00 +35°C° 0 mm 1 mps 741 mmHg 62%
    09:00 +37°C° 0 mm 2 mps 741 mmHg 56%
    10:00 +38°C° 0.1 mm 2 mps 741 mmHg 53%
    11:00 +39°C° 0.1 mm 2 mps 741 mmHg 50%
    12:00 +39°C° 0.1 mm 2 mps 741 mmHg 46%
    13:00 +39°C° 0 mm 2 mps 740 mmHg 47%
    14:00 +39°C° 0 mm 2 mps 740 mmHg 47%
    15:00 +39°C° 0 mm 2 mps 739 mmHg 47%
    16:00 +39°C° 0 mm 3 mps 739 mmHg 49%
    17:00 +38°C° 0 mm 3 mps 739 mmHg 51%
    18:00 +38°C° 0 mm 3 mps 739 mmHg 52%
    19:00 +37°C° 0.2 mm 3 mps 740 mmHg 55%
    20:00 +37°C° 0.2 mm 3 mps 740 mmHg 58%
    21:00 +36°C° 0.2 mm 4 mps 741 mmHg 61%
    22:00 +35°C° 0.5 mm 3 mps 741 mmHg 63%
    23:00 +35°C° 0.5 mm 3 mps 741 mmHg 65%

    22 July, Sunday

    Time Temperature Precipitation Wind Pressure Humidity
    00:00 +34°C° 0.5 mm 3 mps 740 mmHg 67%
    01:00 +34°C° 0.1 mm 3 mps 740 mmHg 68%
    02:00 +34°C° 0.1 mm 3 mps 740 mmHg 70%
    03:00 +33°C° 0.1 mm 3 mps 739 mmHg 71%
    04:00 +33°C° 0.2 mm 3 mps 740 mmHg 72%
    05:00 +33°C° 0.2 mm 3 mps 740 mmHg 74%
    06:00 +33°C° 0.2 mm 3 mps 740 mmHg 75%
    07:00 +31°C° 0.8 mm 3 mps 740 mmHg 76%
    08:00 +31°C° 0.8 mm 3 mps 741 mmHg 77%
    09:00 +31°C° 0.8 mm 3 mps 741 mmHg 78%
    10:00 +31°C° 0.6 mm 3 mps 741 mmHg 77%
    11:00 +31°C° 0.6 mm 3 mps 741 mmHg 77%
    12:00 +33°C° 0.6 mm 3 mps 741 mmHg 76%
    13:00 +33°C° 0.2 mm 3 mps 740 mmHg 73%
    14:00 +34°C° 0.2 mm 3 mps 740 mmHg 69%
    15:00 +35°C° 0.2 mm 4 mps 739 mmHg 65%
    16:00 +34°C° 0.2 mm 3 mps 739 mmHg 66%
    17:00 +34°C° 0.2 mm 3 mps 739 mmHg 67%
    18:00 +34°C° 0.2 mm 3 mps 739 mmHg 67%
    19:00 +34°C° 0.5 mm 2 mps 739 mmHg 70%
    20:00 +32°C° 0.5 mm 2 mps 739 mmHg 72%
    21:00 +32°C° 0.5 mm 2 mps 740 mmHg 75%
    22:00 +31°C° 1.6 mm 2 mps 740 mmHg 76%
    23:00 +31°C° 1.6 mm 3 mps 739 mmHg 78%
    Show more